Simultaneous Nadir Overpasses (SNOs) Predictions

Prediction of SNOs between LANDSAT-8 and NOAA-19 Satellite Orbit:

Table of predicted SNOs for the next 14.0 days since TLE Epoch: 1/11/2020
Index Date (LANDSAT-8) Time (LANDSAT-8) Lat,Lon (LANDSAT-8) SZA (LANDSAT-8 ) Date (NOAA-19) Time (NOAA-19) Lat,Lon (NOAA-19) SZA (NOAA-19 ) Distance(km) Time Diff (sec)
1 01/13/2020 05:28:55 -79.39, -59.14 78.45 01/13/2020 05:28:39 -79.38, -59.00 78.45 2.96 16
2 01/15/2020 11:02:38 79.40, 37.52 101.18 01/15/2020 11:02:06 79.41, 37.48 101.17 1.23 32
3 01/15/2020 11:52:06 -79.38,-155.03 78.87 01/15/2020 11:53:00 -79.38,-154.93 78.85 2.07 54
4 01/17/2020 16:36:23 -79.40, 134.07 79.26 01/17/2020 16:35:22 -79.42, 134.18 79.26 2.86 61
5 01/17/2020 17:25:49 79.39, -58.35 100.72 01/17/2020 17:26:26 79.38, -58.26 100.73 1.98 37
6 01/19/2020 22:10:01 79.61,-127.92 100.56 01/19/2020 22:08:56 79.66,-131.58 100.38 73.44 65
7 01/19/2020 22:59:34 -79.40, 38.23 79.75 01/19/2020 22:59:43 -79.41, 38.25 79.73 1.71 9
8 01/22/2020 04:33:17 79.42, 134.94 99.79 01/22/2020 04:33:08 79.42, 134.95 99.79 0.32 9
9 01/22/2020 05:22:50 -79.20, -58.84 80.51 01/22/2020 05:23:55 -79.13, -55.25 80.33 75.42 65
10 01/24/2020 10:07:02 -79.43,-128.41 80.72 01/24/2020 10:06:25 -79.42,-128.32 80.74 2.25 37




NCC Satellite Simultaneous Nadir Overpasses (SNOs) Prediction Service
